Location: Laterina
(43.5167°N, 11.7167°E)
Time: 17:05:28
(UTC+00:00)

CZ-4 R/B - Pass Details

Date: 24 September 2020
Orbit: 530 x 600 km, 97.7° (Epoch: 20 October)

Event Time Altitude Azimuth Distance (km) Brightness Sun altitude
Rises 18:45:36 0° 203° (SSW) 2,834 5.0 -18.6°
Reaches altitude 10° 18:48:18 10° 221° (SW) 1,933 4.4 -19.1°
Maximum altitude 18:51:18 19° 267° (W) 1,440 4.3 -19.6°
Drops below altitude 10° 18:54:18 10° 313° (NW) 1,928 5.1 -20.1°
Sets 18:57:01 0° 332° (NNW) 2,824 5.7 -20.6°
